[[{"header":{"parameterUnit":"m.s-1","parameterCategory":1,"la1":30.2991,"la2":30.254,"lo1":-89.0895,"lo2":-89.0444,"dy":0.0017,"dx":0.0017,"nx":28,"ny":28,"refTime":"2025-09-13T03:00:00:Z","depth":0,"parameterNumber":2,"parameterNumberName":"U-component_of_WINDS"},"data":[0,0,0,0,0,0,0,0,0,0,0,0,0,0,0,0,0,0,0,0,0,0,0,0,0,0,0,0,0,0,0,0,0,0,0,0,0,0,0,0,0,0,0,0,0,0,0,0,0,0,0,0,0,0,0,0,0,0,2.1685,2.1686,0,2.1802,2.1803,2.1805,2.1816,2.1814,2.1813,2.1812,2.1932,2.1936,2.1941,0,0,0,0,0,0,0,0,0,0,0,0,0,2.1471,2.1475,2.1685,2.1687,2.1688,2.1802,2.1803,2.1805,2.1816,2.1814,2.1813,2.1811,2.1931,2.1936,2.1941,0,0,0,0,0,0,0,0,0,0,0,0,0,2.1574,2.1476,2.1685,2.1707,2.171,2.1801,2.1803,2.1805,2.1816,2.1814,2.1812,2.1811,2.1929,2.1935,2.1942,2.2018,0,0,2.1961,2.1964,0,0,0,0,0,0,0,0,2.1568,2.1582,2.1702,2.1706,2.171,2.1792,2.1772,2.1877,2.1817,2.1776,2.1812,2.181,2.1887,2.1897,2.1923,2.2024,2.2029,2.1962,2.1966,2.1969,2.1971,0,0,0,0,0,0,0,2.1561,2.1577,2.1731,2.1704,2.1709,2.1711,2.1724,2.1792,2.184,2.1779,2.178,2.1794,2.1889,2.1917,2.1926,2.2031,2.1962,2.1968,2.1972,2.1974,2.2199,2.2201,0,0,0,0,0,0,2.155,2.1571,2.1728,2.1735,2.1633,2.1717,2.1731,2.1768,2.184,2.1849,2.1796,2.1794,2.1906,2.1918,2.193,2.2023,2.1969,2.1975,2.1979,2.2197,2.22,2.2202,0,0,0,0,0,0,2.1545,2.1563,2.1723,2.1653,2.1674,2.1722,2.1764,2.1771,2.1799,2.1852,2.1861,2.1815,2.1905,2.1921,2.1996,2.2027,2.1978,2.1984,2.2195,2.2198,2.2201,2.221,0,0,0,0,0,0,2.1539,2.1562,2.1591,2.1654,2.1677,2.1787,2.1766,2.1775,2.181,2.1809,2.1873,2.1881,2.1905,2.1986,2.2002,2.2035,2.1989,2.2192,2.2196,2.22,2.2207,2.2213,2.2218,0,0,0,0,0,2.1531,2.159,2.1593,2.1612,2.1715,2.1789,2.1802,2.1828,2.1812,2.1842,2.1876,2.1879,2.2022,2.1994,2.2012,2.2047,2.219,2.2195,2.22,2.2204,2.2212,2.2218,0,0,0,0,0,0,2.153,2.1598,2.1602,2.1683,2.173,2.179,2.1829,2.1835,2.1888,2.1885,2.1915,2.193,2.2003,2.2033,2.2001,2.2125,2.2104,2.2113,2.2102,2.2109,2.2114,2.2104,2.1994,0,0,0,0,0,2.1539,2.1593,2.165,2.1715,2.1739,2.178,2.1813,2.1829,2.1878,2.1898,2.1938,2.1986,2.2042,2.2078,2.2132,2.2212,2.2225,2.2246,2.2251,2.2255,2.2261,2.2304,2.2313,2.2217,2.2217,2.2217,0,0,2.1558,2.1602,2.1634,2.1716,2.1754,2.1809,2.1796,2.1855,2.1895,2.1907,2.198,2.2011,2.2067,2.2144,2.218,2.2172,2.2291,2.2261,2.2264,2.2268,2.231,2.2319,2.2327,2.2221,2.222,2.222,0,0,2.162,2.166,2.1718,2.1756,2.1814,2.1841,2.1855,2.1915,2.1936,2.2009,2.2019,2.2068,2.2163,2.2202,2.2234,2.2311,2.2315,2.2328,2.2356,2.2397,2.2405,2.2412,2.2437,2.2446,2.2335,2.2335,2.2335,0,2.1636,2.1719,2.1747,2.1805,2.184,2.1854,2.1912,2.1948,2.2021,2.2044,2.2034,2.2153,2.2192,2.2277,2.2296,2.2323,2.2338,2.232,2.2402,2.2409,2.2416,2.244,2.2449,2.2336,2.2336,2.2336,2.2336,0,2.1735,2.1792,2.1832,2.1901,2.1941,2.1999,2.2035,2.2072,2.2085,2.2113,2.2187,2.2235,2.2297,2.232,2.2334,2.2407,2.24,2.2396,2.2375,2.2425,2.2448,2.2458,2.2337,2.2337,2.2337,2.2337,0,0,2.1797,2.1881,2.1895,2.1926,2.1991,2.2036,2.2094,2.2156,2.2186,2.2236,2.2285,2.2365,2.2361,2.2398,2.2416,2.2453,2.2508,2.2444,2.2446,2.2452,2.259,2.2591,2.2601,2.2512,2.2514,2.2516,2.2584,0,2.1864,2.1968,2.1995,2.2083,2.2135,2.215,2.22,2.2246,2.2274,2.2322,2.2353,2.2409,2.24,2.2422,2.246,2.2493,2.2536,2.2489,2.2556,2.2558,2.2539,2.2614,2.2615,2.2677,2.2594,2.2596,2.2597,0,2.1956,2.2007,2.21,2.2158,2.2181,2.2226,2.2283,2.233,2.2382,2.2399,2.244,2.2455,2.2516,2.2494,2.2578,2.2546,2.2575,2.2596,2.2599,2.2604,2.2578,2.2618,2.2698,2.2707,2.2612,2.2611,2.261,0,2.1989,2.2082,2.2149,2.2175,2.2245,2.2275,2.2306,2.2356,2.2391,2.2442,2.2464,2.2522,2.2553,2.2598,2.2627,2.2609,2.2708,2.2689,2.2723,2.2722,2.2741,2.2738,2.2824,2.2764,2.2764,2.2764,2.2764,0,2.2059,2.2115,2.2164,2.2205,2.2268,2.2299,2.236,2.2391,2.2435,2.2482,2.2499,2.2542,2.258,2.2629,2.2653,2.2717,2.2732,2.2747,2.2753,2.2744,2.2742,2.2762,2.2757,2.2766,2.2766,2.2765,2.2765,0,2.2105,2.2141,2.2214,2.2274,2.229,2.2334,2.2385,2.2425,2.2454,2.2513,2.2528,2.2574,2.2632,2.2667,2.2741,2.2757,2.2827,2.2832,2.2809,2.2811,2.2842,2.2837,2.2941,2.2955,2.2888,2.2889,2.2889,0,2.2146,2.2189,2.2254,2.2286,2.2317,2.2369,2.2405,2.2437,2.2474,2.2535,2.2568,2.2627,2.2676,2.2768,2.2807,2.2864,2.2869,2.2901,2.2877,2.2867,2.2866,2.2862,2.2865,2.2904,2.2905,2.2905,2.2905,0,2.2215,2.223,2.228,2.2337,2.2379,2.2425,2.2472,2.2497,2.2538,2.2577,2.2637,2.2675,2.275,2.2808,2.2868,2.2899,2.2908,2.2913,2.2923,2.2914,2.2898,2.2904,2.2817,2.291,2.2909,2.2909,2.2909,2.2909,2.2258,2.2296,2.2347,2.2402,2.244,2.2483,2.2523,2.2557,2.2607,2.267,2.2687,2.2749,2.2799,2.288,2.2913,2.2962,2.2956,2.2972,2.2975,2.2978,2.2977,2.2892,2.2973,2.2973,2.2973,2.2973,2.2973,0,2.2324,2.2358,2.2409,2.2473,2.2516,2.2523,2.2574,2.2609,2.2663,2.271,2.2757,2.2825,2.2882,2.2926,2.2984,2.3014,2.302,2.3028,2.3024,2.3031,2.298,2.2964,2.3022,2.3022,2.3022,2.3022,2.3022,2.3022,2.2364,2.2428,2.245,2.2533,2.2567,2.2627,2.2656,2.2695,2.2731,2.2806,2.2853,2.2882,2.2927,2.2988,2.304,2.3051,2.3071,2.3078,2.309,2.304,2.3035,2.303,2.3015,2.3082,2.3082,2.3136,2.3137,2.3137]},{"header":{"parameterUnit":"m.s-1","parameterCategory":1,"la1":30.2991,"la2":30.254,"lo1":-89.0895,"lo2":-89.0444,"dy":0.0017,"dx":0.0017,"nx":28,"ny":28,"refTime":"2025-09-13T03:00:00:Z","depth":0,"parameterNumber":3,"parameterNumberName":"V-component_of_WINDS"},"data":[0,0,0,0,0,0,0,0,0,0,0,0,0,0,0,0,0,0,0,0,0,0,0,0,0,0,0,0,0,0,0,0,0,0,0,0,0,0,0,0,0,0,0,0,0,0,0,0,0,0,0,0,0,0,0,0,0,0,2.8609,2.8609,0,2.8553,2.8552,2.8551,2.8474,2.8472,2.8471,2.847,2.8412,2.8412,2.8411,0,0,0,0,0,0,0,0,0,0,0,0,0,2.865,2.865,2.861,2.8609,2.8608,2.8553,2.8552,2.8551,2.8474,2.8472,2.8471,2.8469,2.8412,2.8412,2.8411,0,0,0,0,0,0,0,0,0,0,0,0,0,2.8617,2.865,2.861,2.8563,2.8558,2.8553,2.8552,2.8551,2.8474,2.8472,2.847,2.8468,2.8412,2.8412,2.8411,2.8448,0,0,2.841,2.841,0,0,0,0,0,0,0,0,2.8619,2.8616,2.857,2.8566,2.8561,2.8518,2.8545,2.8516,2.8475,2.8506,2.847,2.8467,2.8449,2.8445,2.8439,2.8445,2.8442,2.841,2.8409,2.8409,2.8409,0,0,0,0,0,0,0,2.8621,2.8618,2.8587,2.857,2.8564,2.8544,2.8538,2.8539,2.8489,2.8503,2.8497,2.8492,2.8446,2.844,2.8437,2.8442,2.841,2.8409,2.8409,2.8409,2.8472,2.8474,0,0,0,0,0,0,2.8631,2.862,2.8589,2.8585,2.8586,2.8545,2.8538,2.8534,2.8489,2.848,2.8493,2.8488,2.8441,2.8438,2.8435,2.8473,2.8409,2.8409,2.8409,2.847,2.8473,2.8475,0,0,0,0,0,0,2.8632,2.8629,2.8591,2.8601,2.8595,2.8547,2.8543,2.8534,2.8527,2.8482,2.8472,2.8496,2.844,2.8435,2.8444,2.847,2.8409,2.8408,2.8468,2.8471,2.8474,2.8551,0,0,0,0,0,0,2.8633,2.863,2.8643,2.8602,2.8595,2.8602,2.8545,2.8534,2.8527,2.8519,2.8482,2.8474,2.8438,2.8446,2.8444,2.8468,2.8408,2.8466,2.8469,2.8473,2.8546,2.8556,2.8565,0,0,0,0,0,2.8635,2.8668,2.8644,2.8641,2.8611,2.8604,2.86,2.8558,2.8529,2.8542,2.8512,2.8475,2.8468,2.8447,2.8445,2.8469,2.8464,2.8468,2.8473,2.8542,2.8554,2.8565,0,0,0,0,0,0,2.8713,2.8661,2.8635,2.8655,2.8634,2.8591,2.8606,2.8573,2.856,2.8554,2.8502,2.8494,2.851,2.849,2.8469,2.8501,2.846,2.8464,2.8513,2.8525,2.8534,2.8538,2.8407,0,0,0,0,0,2.8733,2.8732,2.8687,2.8709,2.87,2.8655,2.865,2.862,2.8596,2.8587,2.8558,2.8537,2.853,2.8526,2.8517,2.8543,2.8533,2.8558,2.8567,2.8576,2.858,2.859,2.8601,2.8489,2.8489,2.8489,0,0,2.8773,2.8745,2.8747,2.8723,2.8704,2.8704,2.8648,2.8651,2.865,2.8588,2.8594,2.8572,2.8545,2.8562,2.8568,2.8547,2.8608,2.8581,2.8588,2.8588,2.8596,2.8606,2.8616,2.8492,2.8492,2.8491,0,0,2.8847,2.8825,2.8841,2.8822,2.8793,2.8763,2.8767,2.8728,2.8711,2.8716,2.8669,2.8668,2.8657,2.8638,2.8628,2.8693,2.8658,2.8692,2.8741,2.8752,2.8761,2.8769,2.8791,2.88,2.8696,2.8696,2.8696,0,2.89,2.8898,2.8853,2.8858,2.8848,2.8792,2.8807,2.8791,2.8761,2.8755,2.8731,2.8715,2.8693,2.8704,2.872,2.8714,2.8715,2.8696,2.8764,2.8771,2.8777,2.8798,2.8806,2.8701,2.87,2.87,2.8699,0,2.8965,2.8965,2.8981,2.8952,2.8944,2.8955,2.891,2.8908,2.8878,2.885,2.8856,2.8827,2.881,2.8811,2.8781,2.8818,2.8805,2.8773,2.8731,2.8793,2.8811,2.8819,2.8707,2.8705,2.8704,2.8703,0,0,2.9086,2.9032,2.9039,2.9025,2.8988,2.8987,2.8994,2.8977,2.8975,2.8956,2.896,2.8951,2.8921,2.891,2.8878,2.8887,2.8939,2.8854,2.8852,2.887,2.8976,2.9,2.901,2.8916,2.8917,2.8918,2.8978,0,2.9152,2.9161,2.912,2.914,2.9138,2.9084,2.909,2.9068,2.9042,2.9036,2.9007,2.9001,2.8963,2.8955,2.8962,2.8932,2.896,2.8927,2.8918,2.8919,2.8926,2.902,2.9045,2.9103,2.8985,2.8986,2.8987,0,2.923,2.9214,2.9234,2.9195,2.9193,2.9199,2.918,2.9176,2.9149,2.9129,2.9116,2.9079,2.9082,2.9042,2.9045,2.9024,2.9017,2.9002,2.9003,2.9,2.8957,2.9019,2.9121,2.9129,2.8998,2.8997,2.8997,0,2.9315,2.9299,2.9308,2.9298,2.9254,2.9259,2.9241,2.9212,2.9205,2.9188,2.9182,2.9166,2.9157,2.9145,2.9105,2.9079,2.9112,2.9069,2.9095,2.9096,2.9105,2.9105,2.9206,2.9102,2.9102,2.9102,2.9101,0,2.9392,2.9406,2.9346,2.9352,2.9365,2.9318,2.9332,2.9309,2.9284,2.9283,2.9235,2.9236,2.9182,2.9177,2.9145,2.9152,2.9148,2.9132,2.9123,2.9136,2.9138,2.9131,2.9126,2.9104,2.9103,2.9103,2.9102,0,2.949,2.945,2.9457,2.9414,2.9403,2.9415,2.9378,2.9381,2.9352,2.9352,2.9349,2.9303,2.9294,2.9252,2.9233,2.9211,2.9229,2.9212,2.9238,2.9232,2.9261,2.9258,2.9361,2.9372,2.9261,2.9262,2.9263,0,2.9541,2.9551,2.9509,2.9505,2.9489,2.9484,2.9476,2.9429,2.9422,2.9392,2.9398,2.9385,2.9372,2.936,2.9324,2.9309,2.9291,2.9328,2.9288,2.9301,2.9291,2.929,2.9291,2.9337,2.9338,2.9339,2.934,0,2.9637,2.9617,2.9607,2.959,2.9582,2.9566,2.9548,2.9547,2.9495,2.949,2.948,2.947,2.945,2.9437,2.9415,2.9395,2.9359,2.9353,2.9358,2.9371,2.9386,2.9377,2.9261,2.9351,2.935,2.9349,2.9348,2.9348,2.9712,2.9718,2.9689,2.9679,2.966,2.9644,2.9645,2.9615,2.9606,2.9587,2.9559,2.9553,2.9524,2.9492,2.9475,2.9468,2.9448,2.9455,2.9457,2.946,2.9466,2.9387,2.9464,2.9464,2.9463,2.9463,2.9463,0,2.9805,2.9783,2.9775,2.9751,2.9743,2.9709,2.9687,2.9683,2.9677,2.9654,2.9642,2.963,2.9617,2.9581,2.9564,2.9565,2.9548,2.9563,2.9562,2.9558,2.9486,2.9483,2.9577,2.9577,2.9577,2.9577,2.9577,2.9577,2.9852,2.9859,2.9835,2.9832,2.9811,2.9804,2.9794,2.9778,2.976,2.9748,2.9737,2.9714,2.9685,2.9665,2.9651,2.9641,2.9636,2.9656,2.964,2.9574,2.9563,2.9552,2.9549,2.9656,2.9656,2.9712,2.9713,2.9713]}]]